This is the latest recevied weather packets stored in our database for station/object K7LDN-13. If no packets are shown the sender has not sent any weather packets the latest 10 day(s).
| Time | Temp. | Humidity | Pressure | Rain* | Wind** | Luminosity | Snow |
|---|---|---|---|---|---|---|---|
| 1777430306 | 10° C | 46% | 1022.4 hPa | 0 mm | - | 0 W/m² | - |
| 1777430006 | 10° C | 46% | 1022.4 hPa | 0 mm | - | 1 W/m² | - |
| 1777429703 | 10° C | 45% | 1022.2 hPa | 0 mm | - | 1 W/m² | - |
| 1777429399 | 10.56° C | 45% | 1022.5 hPa | 0 mm | - | 3 W/m² | - |
| 1777429094 | 10.56° C | 44% | 1022.2 hPa | 0 mm | - | 5 W/m² | - |
| 1777428791 | 10.56° C | 44% | 1022.4 hPa | 0 mm | - | 8 W/m² | - |
| 1777428487 | 11.11° C | 43% | 1022.4 hPa | 0 mm | - | 12 W/m² | - |
| 1777428183 | 11.11° C | 41% | 1022.2 hPa | 0 mm | - | 16 W/m² | - |
| 1777427878 | 11.67° C | 40% | 1022.4 hPa | 0 mm | - | 21 W/m² | - |
| 1777427575 | 12.22° C | 40% | 1022.4 hPa | 0 mm | - | 26 W/m² | - |
| 1777427271 | 12.22° C | 40% | 1022.4 hPa | 0 mm | - | 32 W/m² | - |
| 1777426969 | 12.22° C | 38% | 1022.1 hPa | 0 mm | - | 37 W/m² | - |
| 1777426666 | 12.78° C | 38% | 1022.2 hPa | 0 mm | - | 42 W/m² | - |
| 1777426363 | 12.78° C | 37% | 1022.5 hPa | 0 mm | - | 49 W/m² | - |
| 1777426058 | 12.78° C | 39% | 1022.5 hPa | 0 mm | - | 57 W/m² | - |
| 1777425753 | 12.78° C | 38% | 1022.4 hPa | 0 mm | - | 66 W/m² | - |
| 1777425448 | 12.78° C | 38% | 1022.5 hPa | 0 mm | - | 74 W/m² | - |
| 1777425145 | 12.78° C | 38% | 1022.6 hPa | 0 mm | - | 84 W/m² | - |
| 1777424841 | 12.78° C | 39% | 1022.5 hPa | 0 mm | - | 90 W/m² | - |
| 1777424536 | 12.78° C | 38% | 1022.7 hPa | 0 mm | - | 103 W/m² | - |
| 1777424232 | 12.78° C | 38% | 1022.6 hPa | 0 mm | - | 117 W/m² | - |
| 1777423929 | 12.78° C | 39% | 1022.7 hPa | 0 mm | - | 136 W/m² | - |
| 1777423625 | 12.22° C | 41% | 1022.8 hPa | 0 mm | - | 116 W/m² | - |
| 1777423321 | 11.67° C | 41% | 1022.5 hPa | 0 mm | - | 66 W/m² | - |
| 1777423016 | 12.22° C | 39% | 1022.7 hPa | 0 mm | - | 63 W/m² | - |
* Rain latest hour (hover to see other rain measurements)
** Current wind speed in m/s (hover to see current wind gust speed)